Find Starlink 33881

NORAD ID: 63779 Int'l Des: 2025-091 Owner: SPXS Country: US Constellation: starlink operational
LEOCIRCULAR

当前视图

正在加载3D地球...

About Starlink 33881

Starlink 33881 (NORAD 63779) is a starlink constellation satellite (v2 mini) launched May 2, 2025 by SPXS of US. It operates in LEO, CIRCULAR orbit with a mass of 575.00 kg.

关于 Starlink 33881

正在加载描述...

即将过境

Passes for default location (London). Set your location on the main map for personalized predictions.

高度历史

Loading altitude history...

两行轨道根数

1 63779U 25091E 26170.14311881 .00011204 00000-0 41577-3 0 9997
2 63779 43.0008 199.9712 0001880 278.4731 81.5908 15.27600474 64418
Epoch: Jun 19, 2026 • Age: 31 hours

当前状态

高度 494.9 km
速度 7.62 km/s
星下点 -42.91°S, 44.84°E
发射日期 May 2, 2025
运行时间 1.1 years
类型 internet

技术详情

分类 Payload
质量 575.00 kg
干质量 530.00 kg
总质量 575.00 kg
长度 0.30 m
直径 4.10 m
跨度 29.00 m
形状 Box + pan
制造商 SPXS
平台类型 Starlink V2MO
阶段状态 In Orbit
所有者/国家 SPXS/US

Most Searched